1998-067NQ

Last updated on Sun May 13 2018 00:15:04 GMT+0000 (Coordinated Universal Time)

1 43467U 98067NQ 18132.66440278 .00010723 00000-0 16377-3 0 9996 2 43467 51.6394 195.7918 0003217 4.6312 131.9453 15.54998227 179
UTC large
Height (km)
Speed (km/s)
/
Latitude / Longitude
Inclination (degrees)
Orbital Period (minutes)
Azimuth
Elevation
Range (km)
Doppler Factor

Next 0 passes for location: London (51.5072 / 0.1276)

Sorry there are no passes over London.